| time (UTC) | temp C | wind direction | speed KPH | gust KPH | rain 1hr cm | rain 24hr cm | rain mn cm | humidity % | barometer mb |
| 20260506201523 | 30 | 248 | 0.0 | 6.4 | 0.00 | 0.00 | 0.00 | 74 | 1009.2 |
| 20260506201010 | 30 | 262 | 0.0 | 6.4 | 0.00 | 0.00 | 0.00 | 75 | 1009.2 |
| 20260506200504 | 30 | 282 | 0.0 | 8.0 | 0.00 | 0.00 | 0.00 | 75 | 1009.2 |
| 20260506200008 | 30 | 223 | 3.2 | 8.0 | 0.00 | 0.00 | 0.00 | 74 | 1009.2 |
| 20260506195504 | 30 | 303 | 1.6 | 9.7 | 0.00 | 0.00 | 0.00 | 74 | 1009.2 |
| 20260506195005 | 30 | 273 | 1.6 | 9.7 | 0.00 | 0.00 | 0.00 | 76 | 1009.3 |
| 20260506194534 | 29 | 150 | 1.6 | 9.7 | 0.00 | 0.00 | 0.00 | 75 | 1009.4 |
| 20260506194005 | 29 | 197 | 1.6 | 8.0 | 0.00 | 0.00 | 0.00 | 75 | 1009.4 |
| 20260506193509 | 29 | 269 | 0.0 | 8.0 | 0.00 | 0.00 | 0.00 | 77 | 1009.4 |
| 20260506193017 | 29 | 259 | 1.6 | 11.3 | 0.00 | 0.00 | 0.00 | 76 | 1009.4 |
| 20260506192506 | 29 | 5 | 3.2 | 11.3 | 0.00 | 0.00 | 0.00 | 76 | 1009.4 |
| 20260506192008 | 29 | 273 | 1.6 | 8.0 | 0.00 | 0.00 | 0.00 | 76 | 1009.5 |
| 20260506191521 | 29 | 49 | 3.2 | 8.0 | 0.00 | 0.00 | 0.00 | 75 | 1009.6 |
| 20260506191007 | 29 | 138 | 1.6 | 8.0 | 0.00 | 0.00 | 0.00 | 75 | 1009.6 |
| 20260506190510 | 29 | 163 | 3.2 | 11.3 | 0.00 | 0.00 | 0.00 | 76 | 1009.7 |
| 20260506190026 | 29 | 226 | 3.2 | 11.3 | 0.00 | 0.00 | 0.00 | 76 | 1009.7 |
| 20260506185509 | 29 | 291 | 0.0 | 9.7 | 0.00 | 0.00 | 0.00 | 76 | 1009.7 |
| 20260506185008 | 29 | 214 | 1.6 | 9.7 | 0.00 | 0.00 | 0.00 | 76 | 1009.9 |
| 20260506184510 | 29 | 217 | 3.2 | 6.4 | 0.00 | 0.00 | 0.00 | 75 | 1010.0 |
| 20260506184008 | 29 | 172 | 0.0 | 6.4 | 0.00 | 0.00 | 0.00 | 76 | 1010.0 |
| 20260506183507 | 29 | 135 | 0.0 | 3.2 | 0.00 | 0.00 | 0.00 | 78 | 1010.0 |
| 20260506183015 | 29 | 215 | 0.0 | 4.8 | 0.00 | 0.00 | 0.00 | 77 | 1010.0 |
| 20260506182503 | 28 | 236 | 1.6 | 4.8 | 0.00 | 0.00 | 0.00 | 77 | 1010.1 |
| 20260506182005 | 28 | 157 | 0.0 | 4.8 | 0.00 | 0.00 | 0.00 | 77 | 1010.1 |
| 20260506181520 | 28 | 254 | 0.0 | 3.2 | 0.00 | 0.00 | 0.00 | 79 | 1010.2 |
| 20260506181009 | 29 | 259 | 0.0 | 1.6 | 0.00 | 0.00 | 0.00 | 79 | 1010.4 |
| 20260506180508 | 29 | 270 | 0.0 | 1.6 | 0.00 | 0.00 | 0.00 | 76 | 1010.4 |
| 20260506180023 | 29 | 119 | 0.0 | 0.0 | 0.00 | 0.00 | 0.00 | 78 | 1010.6 |
| 20260506175513 | 28 | 117 | 0.0 | 4.8 | 0.00 | 0.00 | 0.00 | 80 | 1010.6 |
| 20260506175017 | 28 | 240 | 0.0 | 4.8 | 0.00 | 0.00 | 0.00 | 80 | 1010.7 |
| 20260506174526 | 28 | 249 | 1.6 | 4.8 | 0.00 | 0.00 | 0.00 | 80 | 1010.7 |
| 20260506174008 | 28 | 147 | 0.0 | 1.6 | 0.00 | 0.00 | 0.00 | 81 | 1010.6 |
| 20260506173511 | 28 | 193 | 0.0 | 1.6 | 0.00 | 0.00 | 0.00 | 81 | 1010.7 |
| 20260506173011 | 28 | 188 | 0.0 | 3.2 | 0.00 | 0.00 | 0.00 | 80 | 1010.8 |
| 20260506172505 | 28 | 197 | 0.0 | 3.2 | 0.00 | 0.00 | 0.00 | 81 | 1010.9 |
| 20260506172003 | 28 | 257 | 0.0 | 3.2 | 0.00 | 0.00 | 0.00 | 80 | 1011.0 |
| 20260506171519 | 28 | 167 | 0.0 | 8.0 | 0.00 | 0.00 | 0.00 | 80 | 1011.0 |
| 20260506171005 | 28 | 185 | 0.0 | 8.0 | 0.00 | 0.00 | 0.00 | 81 | 1011.1 |
| 20260506170510 | 28 | 231 | 1.6 | 3.2 | 0.00 | 0.00 | 0.00 | 81 | 1011.0 |
| 20260506170023 | 27 | 184 | 0.0 | 3.2 | 0.00 | 0.00 | 0.00 | 83 | 1011.0 |
| 20260506165511 | 27 | 115 | 0.0 | 3.2 | 0.00 | 0.00 | 0.00 | 83 | 1011.0 |
| 20260506165009 | 27 | 131 | 0.0 | 6.4 | 0.00 | 0.00 | 0.00 | 84 | 1011.1 |
| 20260506164526 | 27 | 150 | 1.6 | 6.4 | 0.00 | 0.00 | 0.00 | 84 | 1011.1 |
| 20260506164011 | 27 | 99 | 0.0 | 6.4 | 0.00 | 0.00 | 0.00 | 85 | 1011.0 |
| 20260506163511 | 26 | 199 | 0.0 | 8.0 | 0.00 | 0.00 | 0.00 | 86 | 1010.9 |
| 20260506163026 | 26 | 167 | 3.2 | 8.0 | 0.00 | 0.00 | 0.00 | 86 | 1010.9 |
| 20260506162508 | 26 | 237 | 0.0 | 3.2 | 0.00 | 0.00 | 0.00 | 87 | 1010.8 |
| 20260506162011 | 26 | 224 | 0.0 | 3.2 | 0.00 | 0.00 | 0.00 | 88 | 1010.9 |
| 20260506161514 | 26 | 244 | 0.0 | 3.2 | 0.00 | 0.00 | 0.00 | 87 | 1010.8 |
| 20260506161006 | 26 | 141 | 0.0 | 3.2 | 0.00 | 0.00 | 0.00 | 87 | 1010.8 |
| 20260506160510 | 26 | 145 | 0.0 | 3.2 | 0.00 | 0.00 | 0.00 | 88 | 1010.7 |
| 20260506160016 | 26 | 179 | 0.0 | 0.0 | 0.00 | 0.00 | 0.00 | 88 | 1010.6 |
| 20260506155506 | 26 | 209 | 0.0 | 0.0 | 0.00 | 0.00 | 0.00 | 88 | 1010.7 |
| 20260506155009 | 26 | 173 | 0.0 | 4.8 | 0.00 | 0.00 | 0.00 | 89 | 1010.7 |
| 20260506154522 | 25 | 177 | 0.0 | 4.8 | 0.00 | 0.00 | 0.00 | 89 | 1010.8 |
| 20260506154013 | 25 | 162 | 0.0 | 3.2 | 0.00 | 0.00 | 0.00 | 89 | 1010.8 |
| 20260506153512 | 25 | 213 | 0.0 | 3.2 | 0.00 | 0.00 | 0.00 | 89 | 1010.7 |
| 20260506153025 | 25 | 208 | 0.0 | 3.2 | 0.00 | 0.00 | 0.00 | 89 | 1010.5 |
| 20260506152509 | 25 | 97 | 0.0 | 4.8 | 0.00 | 0.00 | 0.00 | 89 | 1010.4 |
| 20260506152009 | 25 | 304 | 0.0 | 4.8 | 0.00 | 0.00 | 0.00 | 88 | 1010.3 |
| 20260506151529 | 25 | 132 | 0.0 | 6.4 | 0.00 | 0.00 | 0.00 | 89 | 1010.3 |
| 20260506151010 | 25 | 231 | 1.6 | 6.4 | 0.00 | 0.00 | 0.00 | 88 | 1010.3 |
| 20260506150510 | 25 | 172 | 0.0 | 3.2 | 0.00 | 0.00 | 0.00 | 88 | 1010.2 |
| 20260506150016 | 25 | 157 | 0.0 | 3.2 | 0.00 | 0.00 | 0.00 | 88 | 1010.2 |
| 20260506145505 | 26 | 175 | 0.0 | 3.2 | 0.00 | 0.00 | 0.00 | 88 | 1010.0 |
| 20260506145008 | 25 | 49 | 0.0 | 3.2 | 0.00 | 0.00 | 0.00 | 88 | 1009.9 |
| 20260506144521 | 26 | 171 | 0.0 | 3.2 | 0.00 | 0.00 | 0.00 | 88 | 1009.8 |
| 20260506144007 | 25 | 90 | 0.0 | 3.2 | 0.00 | 0.00 | 0.00 | 89 | 1009.6 |
| 20260506143508 | 25 | 138 | 0.0 | 3.2 | 0.00 | 0.00 | 0.00 | 89 | 1009.6 |
| 20260506143026 | 25 | 134 | 0.0 | 4.8 | 0.00 | 0.00 | 0.00 | 89 | 1009.6 |
| 20260506142510 | 25 | 236 | 0.0 | 4.8 | 0.00 | 0.00 | 0.00 | 89 | 1009.6 |
| 20260506142012 | 25 | 210 | 0.0 | 3.2 | 0.00 | 0.00 | 0.00 | 89 | 1009.8 |
| 20260506141532 | 25 | 169 | 0.0 | 4.8 | 0.00 | 0.00 | 0.00 | 90 | 1009.8 |
| 20260506141011 | 25 | 185 | 0.0 | 4.8 | 0.00 | 0.00 | 0.00 | 90 | 1009.8 |
| 20260506140512 | 25 | 191 | 0.0 | 4.8 | 0.00 | 0.00 | 0.00 | 90 | 1009.9 |
| 20260506140026 | 25 | 170 | 0.0 | 4.8 | 0.00 | 0.00 | 0.00 | 90 | 1009.9 |
| 20260506135509 | 25 | 159 | 0.0 | 4.8 | 0.00 | 0.00 | 0.00 | 90 | 1009.9 |
| 20260506135017 | 25 | 243 | 0.0 | 4.8 | 0.00 | 0.00 | 0.00 | 91 | 1009.9 |
| 20260506134516 | 25 | 265 | 0.0 | 4.8 | 0.00 | 0.00 | 0.00 | 91 | 1010.0 |
| 20260506134007 | 25 | 193 | 0.0 | 0.0 | 0.00 | 0.00 | 0.00 | 92 | 1010.0 |
| 20260506133507 | 25 | 217 | 0.0 | 0.0 | 0.00 | 0.00 | 0.00 | 92 | 1010.0 |
| 20260506133019 | 24 | 124 | 0.0 | 0.0 | 0.00 | 0.00 | 0.00 | 93 | 1010.0 |
| 20260506132508 | 24 | 79 | 0.0 | 1.6 | 0.00 | 0.00 | 0.00 | 93 | 1009.9 |
| 20260506132007 | 24 | 182 | 0.0 | 1.6 | 0.00 | 0.00 | 0.00 | 93 | 1010.0 |
| 20260506131526 | 24 | 187 | 0.0 | 0.0 | 0.00 | 0.00 | 0.00 | 93 | 1010.1 |
| 20260506131011 | 24 | 168 | 0.0 | 0.0 | 0.00 | 0.00 | 0.00 | 94 | 1010.0 |
| 20260506130504 | 23 | 160 | 0.0 | 0.0 | 0.00 | 0.00 | 0.00 | 94 | 1010.0 |
| 20260506130015 | 23 | 159 | 0.0 | 0.0 | 0.00 | 0.00 | 0.00 | 94 | 1009.9 |
| 20260506125505 | 23 | 171 | 0.0 | 0.0 | 0.00 | 0.00 | 0.00 | 94 | 1009.9 |
| 20260506125004 | 23 | 138 | 0.0 | 0.0 | 0.00 | 0.00 | 0.00 | 94 | 1009.9 |
| 20260506124515 | 23 | 138 | 0.0 | 0.0 | 0.00 | 0.00 | 0.00 | 94 | 1010.0 |
| 20260506124007 | 23 | 198 | 0.0 | 0.0 | 0.00 | 0.00 | 0.00 | 94 | 1010.0 |
| 20260506123510 | 23 | 198 | 0.0 | 0.0 | 0.00 | 0.00 | 0.00 | 94 | 1010.0 |
| 20260506123020 | 23 | 198 | 0.0 | 0.0 | 0.00 | 0.00 | 0.00 | 94 | 1009.8 |
| 20260506122507 | 23 | 207 | 0.0 | 1.6 | 0.00 | 0.00 | 0.00 | 94 | 1009.7 |
| 20260506122014 | 23 | 229 | 0.0 | 1.6 | 0.00 | 0.00 | 0.00 | 94 | 1009.7 |
| 20260506121505 | 23 | 124 | 0.0 | 1.6 | 0.00 | 0.00 | 0.00 | 94 | 1009.7 |
| 20260506121004 | 23 | 231 | 0.0 | 0.0 | 0.00 | 0.00 | 0.00 | 94 | 1009.6 |
| 20260506120504 | 23 | 238 | 0.0 | 0.0 | 0.00 | 0.00 | 0.00 | 94 | 1009.7 |
| 20260506120020 | 23 | 215 | 0.0 | 0.0 | 0.00 | 0.00 | 0.00 | 94 | 1009.5 |
| 20260506115507 | 23 | 176 | 0.0 | 0.0 | 0.00 | 0.00 | 0.00 | 94 | 1009.4 |
| 20260506115006 | 23 | 212 | 0.0 | 0.0 | 0.00 | 0.00 | 0.00 | 94 | 1009.4 |
| 20260506114511 | 23 | 207 | 0.0 | 0.0 | 0.00 | 0.00 | 0.00 | 94 | 1009.4 |
| 20260506114004 | 23 | 272 | 0.0 | 1.6 | 0.00 | 0.00 | 0.00 | 94 | 1009.3 |
| 20260506113507 | 23 | 142 | 0.0 | 1.6 | 0.00 | 0.00 | 0.00 | 94 | 1009.3 |
| 20260506113016 | 23 | 256 | 0.0 | 1.6 | 0.00 | 0.00 | 0.00 | 94 | 1009.2 |
| 20260506112508 | 23 | 256 | 0.0 | 1.6 | 0.00 | 0.00 | 0.00 | 94 | 1009.2 |
| 20260506112008 | 23 | 174 | 0.0 | 1.6 | 0.00 | 0.00 | 0.00 | 94 | 1009.1 |
| 20260506111524 | 23 | 165 | 0.0 | 4.8 | 0.00 | 0.00 | 0.00 | 94 | 1009.0 |
| 20260506111006 | 23 | 162 | 0.0 | 4.8 | 0.00 | 0.00 | 0.00 | 94 | 1009.0 |
| 20260506110506 | 23 | 150 | 0.0 | 0.0 | 0.00 | 0.00 | 0.00 | 94 | 1009.0 |
| 20260506110024 | 23 | 162 | 0.0 | 3.2 | 0.00 | 0.00 | 0.00 | 94 | 1009.0 |
| 20260506105504 | 23 | 182 | 0.0 | 3.2 | 0.00 | 0.00 | 0.00 | 94 | 1008.9 |
| 20260506105006 | 23 | 184 | 0.0 | 1.6 | 0.00 | 0.00 | 0.00 | 94 | 1009.0 |
| 20260506104510 | 23 | 220 | 0.0 | 1.6 | 0.00 | 0.00 | 0.00 | 94 | 1009.1 |
| 20260506104010 | 23 | 160 | 0.0 | 4.8 | 0.00 | 0.00 | 0.00 | 94 | 1009.1 |
| 20260506103505 | 23 | 162 | 0.0 | 4.8 | 0.00 | 0.00 | 0.00 | 94 | 1009.0 |
| 20260506103012 | 23 | 198 | 0.0 | 0.0 | 0.00 | 0.00 | 0.00 | 94 | 1009.0 |
| 20260506102509 | 23 | 239 | 0.0 | 1.6 | 0.00 | 0.00 | 0.00 | 94 | 1009.0 |
| 20260506102006 | 23 | 209 | 0.0 | 1.6 | 0.00 | 0.00 | 0.00 | 94 | 1008.9 |
| 20260506101522 | 22 | 96 | 0.0 | 0.0 | 0.00 | 0.00 | 0.00 | 94 | 1008.9 |
| 20260506101008 | 22 | 97 | 0.0 | 0.0 | 0.00 | 0.00 | 0.00 | 93 | 1008.9 |
| 20260506100511 | 22 | 96 | 0.0 | 0.0 | 0.00 | 0.00 | 0.00 | 93 | 1008.9 |
| 20260506100025 | 22 | 96 | 0.0 | 0.0 | 0.00 | 0.00 | 0.00 | 93 | 1008.9 |
| 20260506095507 | 23 | 96 | 0.0 | 0.0 | 0.00 | 0.00 | 0.00 | 93 | 1008.8 |
| 20260506095007 | 23 | 96 | 0.0 | 0.0 | 0.00 | 0.00 | 0.00 | 93 | 1008.8 |
| 20260506094524 | 23 | 97 | 0.0 | 0.0 | 0.00 | 0.00 | 0.00 | 93 | 1008.8 |
| 20260506094005 | 23 | 96 | 0.0 | 0.0 | 0.00 | 0.00 | 0.00 | 93 | 1008.7 |
| 20260506093504 | 23 | 97 | 0.0 | 0.0 | 0.00 | 0.00 | 0.00 | 93 | 1008.7 |
| 20260506093008 | 23 | 97 | 0.0 | 0.0 | 0.00 | 0.00 | 0.00 | 92 | 1008.6 |
| 20260506092505 | 23 | 96 | 0.0 | 0.0 | 0.00 | 0.00 | 0.00 | 92 | 1008.8 |
| 20260506092004 | 23 | 96 | 0.0 | 0.0 | 0.00 | 0.00 | 0.00 | 92 | 1008.8 |
| 20260506091517 | 23 | 96 | 0.0 | 0.0 | 0.00 | 0.00 | 0.00 | 92 | 1008.9 |
| 20260506091006 | 23 | 97 | 0.0 | 0.0 | 0.00 | 0.00 | 0.00 | 92 | 1008.8 |
| 20260506090507 | 23 | 96 | 0.0 | 0.0 | 0.00 | 0.00 | 0.00 | 92 | 1008.9 |
| 20260506090023 | 23 | 96 | 0.0 | 0.0 | 0.00 | 0.00 | 0.00 | 92 | 1008.8 |
| 20260506085508 | 23 | 96 | 0.0 | 0.0 | 0.00 | 0.00 | 0.00 | 92 | 1008.8 |
| 20260506085008 | 23 | 95 | 0.0 | 0.0 | 0.00 | 0.00 | 0.00 | 92 | 1008.8 |
| 20260506084533 | 23 | 56 | 0.0 | 0.0 | 0.00 | 0.00 | 0.00 | 92 | 1008.9 |
| 20260506084008 | 23 | 56 | 0.0 | 0.0 | 0.00 | 0.00 | 0.00 | 91 | 1009.0 |
| 20260506083508 | 23 | 56 | 0.0 | 0.0 | 0.00 | 0.00 | 0.00 | 91 | 1009.0 |
| 20260506083024 | 23 | 56 | 0.0 | 0.0 | 0.00 | 0.00 | 0.00 | 91 | 1009.0 |
| 20260506082504 | 23 | 228 | 0.0 | 0.0 | 0.00 | 0.00 | 0.00 | 91 | 1009.0 |
| 20260506082006 | 23 | 255 | 0.0 | 3.2 | 0.00 | 0.00 | 0.00 | 91 | 1009.0 |
| 20260506081515 | 23 | 192 | 0.0 | 3.2 | 0.00 | 0.00 | 0.00 | 91 | 1009.1 |
| 20260506081006 | 24 | 174 | 0.0 | 3.2 | 0.00 | 0.00 | 0.00 | 91 | 1009.1 |
| 20260506080505 | 24 | 269 | 0.0 | 1.6 | 0.00 | 0.00 | 0.00 | 91 | 1009.0 |
| 20260506073508 | 24 | 230 | 0.0 | 1.6 | 0.00 | 0.00 | 0.00 | 90 | 1009.3 |
| 20260506073025 | 24 | 215 | 0.0 | 1.6 | 0.00 | 0.00 | 0.00 | 90 | 1009.3 |
| 20260506072508 | 24 | 236 | 0.0 | 3.2 | 0.00 | 0.00 | 0.00 | 90 | 1009.4 |
| 20260506072015 | 24 | 221 | 0.0 | 3.2 | 0.00 | 0.00 | 0.00 | 90 | 1009.4 |
| 20260506071529 | 24 | 216 | 0.0 | 3.2 | 0.00 | 0.00 | 0.00 | 90 | 1009.5 |
| 20260506071004 | 24 | 221 | 0.0 | 3.2 | 0.00 | 0.00 | 0.00 | 90 | 1009.6 |
| 20260506070506 | 24 | 154 | 0.0 | 0.0 | 0.00 | 0.00 | 0.00 | 90 | 1009.7 |
| 20260506062508 | 24 | 207 | 0.0 | 1.6 | 0.00 | 0.00 | 0.00 | 90 | 1009.8 |
| 20260506062010 | 24 | 153 | 0.0 | 4.8 | 0.00 | 0.00 | 0.00 | 90 | 1009.8 |
| 20260506061529 | 24 | 158 | 0.0 | 4.8 | 0.00 | 0.00 | 0.00 | 90 | 1009.8 |
| 20260506061009 | 24 | 269 | 0.0 | 6.4 | 0.00 | 0.00 | 0.00 | 90 | 1009.8 |
| 20260506060508 | 24 | 169 | 0.0 | 6.4 | 0.00 | 0.00 | 0.00 | 90 | 1009.9 |
| 20260506051010 | 24 | 229 | 0.0 | 4.8 | 0.00 | 0.00 | 0.00 | 89 | 1009.7 |
| 20260506050509 | 24 | 211 | 0.0 | 4.8 | 0.00 | 0.00 | 0.00 | 89 | 1009.8 |
| 20260506045009 | 24 | 148 | 0.0 | 4.8 | 0.00 | 0.00 | 0.00 | 89 | 1009.8 |
| 20260506044538 | 24 | 244 | 0.0 | 4.8 | 0.00 | 0.00 | 0.00 | 89 | 1009.7 |
| 20260506044010 | 24 | 154 | 0.0 | 3.2 | 0.00 | 0.00 | 0.00 | 89 | 1009.8 |
| 20260506043507 | 24 | 219 | 0.0 | 3.2 | 0.00 | 0.00 | 0.00 | 90 | 1009.8 |
| 20260506043023 | 24 | 226 | 0.0 | 1.6 | 0.00 | 0.00 | 0.00 | 90 | 1009.7 |
| 20260506042509 | 24 | 229 | 0.0 | 1.6 | 0.00 | 0.00 | 0.00 | 89 | 1009.7 |
| 20260506042010 | 24 | 229 | 0.0 | 4.8 | 0.00 | 0.00 | 0.00 | 89 | 1009.6 |
| 20260506041527 | 24 | 221 | 0.0 | 4.8 | 0.00 | 0.00 | 0.00 | 89 | 1009.6 |
| 20260506041008 | 24 | 162 | 0.0 | 8.0 | 0.00 | 0.00 | 0.00 | 89 | 1009.5 |
| 20260506040509 | 24 | 187 | 1.6 | 8.0 | 0.00 | 0.00 | 0.00 | 89 | 1009.5 |
| 20260506040032 | 24 | 160 | 0.0 | 9.7 | 0.00 | 0.00 | 0.00 | 89 | 1009.5 |
| 20260506035509 | 24 | 199 | 0.0 | 9.7 | 0.00 | 0.00 | 0.00 | 89 | 1009.5 |
| 20260506035010 | 24 | 141 | 0.0 | 6.4 | 0.00 | 0.00 | 0.00 | 89 | 1009.4 |
| 20260506034531 | 24 | 203 | 0.0 | 6.4 | 0.00 | 0.00 | 0.00 | 88 | 1009.4 |
| 20260506034007 | 25 | 219 | 0.0 | 6.4 | 0.00 | 0.00 | 0.00 | 88 | 1009.3 |
| 20260506033507 | 25 | 263 | 0.0 | 3.2 | 0.00 | 0.00 | 0.00 | 88 | 1009.2 |
| 20260506033004 | 25 | 199 | 0.0 | 3.2 | 0.00 | 0.00 | 0.00 | 87 | 1009.3 |
| 20260506032502 | 25 | 151 | 0.0 | 9.7 | 0.00 | 0.00 | 0.00 | 87 | 1009.3 |
| 20260506032003 | 25 | 146 | 0.0 | 9.7 | 0.00 | 0.00 | 0.00 | 87 | 1009.3 |
| 20260506031507 | 25 | 211 | 1.6 | 11.3 | 0.00 | 0.00 | 0.00 | 86 | 1009.2 |
| 20260506031003 | 25 | 200 | 0.0 | 11.3 | 0.00 | 0.00 | 0.00 | 86 | 1009.2 |
| 20260506030502 | 25 | 198 | 3.2 | 8.0 | 0.00 | 0.00 | 0.00 | 86 | 1009.2 |
| 20260506030004 | 25 | 146 | 0.0 | 8.0 | 0.00 | 0.00 | 0.00 | 85 | 1009.2 |
| 20260506025505 | 25 | 164 | 0.0 | 8.0 | 0.00 | 0.00 | 0.00 | 85 | 1009.2 |
| 20260506025004 | 25 | 155 | 0.0 | 8.0 | 0.00 | 0.00 | 0.00 | 85 | 1009.1 |
| 20260506024516 | 25 | 278 | 0.0 | 8.0 | 0.00 | 0.00 | 0.00 | 85 | 1009.0 |
| 20260506024005 | 25 | 221 | 1.6 | 8.0 | 0.00 | 0.00 | 0.00 | 85 | 1008.8 |
| 20260506023504 | 25 | 116 | 0.0 | 8.0 | 0.00 | 0.00 | 0.00 | 85 | 1008.9 |
| 20260506023018 | 25 | 164 | 0.0 | 6.4 | 0.00 | 0.00 | 0.00 | 85 | 1008.9 |
| 20260506022508 | 25 | 249 | 1.6 | 6.4 | 0.00 | 0.00 | 0.00 | 85 | 1008.9 |
| 20260506022002 | 25 | 155 | 0.0 | 6.4 | 0.00 | 0.00 | 0.00 | 85 | 1008.8 |
| 20260506021504 | 25 | 158 | 1.6 | 8.0 | 0.00 | 0.00 | 0.00 | 85 | 1008.8 |
| 20260506021004 | 25 | 189 | 0.0 | 8.0 | 0.00 | 0.00 | 0.00 | 85 | 1008.8 |
| 20260506020507 | 25 | 284 | 0.0 | 8.0 | 0.00 | 0.00 | 0.00 | 85 | 1008.7 |
| 20260506020004 | 25 | 181 | 1.6 | 8.0 | 0.00 | 0.00 | 0.00 | 84 | 1008.6 |
| 20260506015503 | 25 | 218 | 1.6 | 8.0 | 0.00 | 0.00 | 0.00 | 84 | 1008.4 |
| 20260506015003 | 25 | 253 | 1.6 | 8.0 | 0.00 | 0.00 | 0.00 | 84 | 1008.5 |
| 20260506014505 | 25 | 153 | 1.6 | 6.4 | 0.00 | 0.00 | 0.00 | 84 | 1008.2 |
| 20260506014004 | 25 | 153 | 0.0 | 6.4 | 0.00 | 0.00 | 0.00 | 84 | 1008.2 |
| 20260506013504 | 25 | 213 | 0.0 | 6.4 | 0.00 | 0.00 | 0.00 | 84 | 1008.1 |
| 20260506013011 | 25 | 215 | 0.0 | 6.4 | 0.00 | 0.00 | 0.00 | 84 | 1008.1 |
| 20260506012504 | 25 | 137 | 0.0 | 9.7 | 0.00 | 0.00 | 0.00 | 83 | 1008.0 |
| 20260506012006 | 25 | 214 | 1.6 | 9.7 | 0.00 | 0.00 | 0.00 | 83 | 1008.0 |
| 20260506011535 | 25 | 152 | 3.2 | 9.7 | 0.00 | 0.00 | 0.00 | 83 | 1008.0 |
| 20260506011010 | 25 | 101 | 0.0 | 8.0 | 0.00 | 0.00 | 0.00 | 83 | 1007.9 |
| 20260506010506 | 25 | 241 | 3.2 | 6.4 | 0.00 | 0.00 | 0.00 | 83 | 1007.8 |
| 20260506010004 | 26 | 255 | 0.0 | 6.4 | 0.00 | 0.00 | 0.00 | 83 | 1007.7 |
| 20260506005504 | 26 | 170 | 1.6 | 6.4 | 0.00 | 0.00 | 0.00 | 82 | 1007.5 |
| 20260506005002 | 26 | 127 | 0.0 | 11.3 | 0.00 | 0.00 | 0.00 | 82 | 1007.5 |
| 20260506004513 | 26 | 209 | 1.6 | 11.3 | 0.00 | 0.00 | 0.00 | 82 | 1007.5 |
| 20260506004003 | 26 | 283 | 3.2 | 11.3 | 0.00 | 0.00 | 0.00 | 81 | 1007.5 |
| 20260506003504 | 26 | 164 | 0.0 | 11.3 | 0.00 | 0.00 | 0.00 | 81 | 1007.5 |
| 20260506003008 | 26 | 240 | 1.6 | 11.3 | 0.00 | 0.00 | 0.00 | 81 | 1007.5 |
| 20260506002503 | 26 | 158 | 0.0 | 9.7 | 0.00 | 0.00 | 0.00 | 81 | 1007.4 |
| 20260506002004 | 26 | 262 | 1.6 | 12.9 | 0.00 | 0.00 | 0.00 | 81 | 1007.4 |
| 20260506001512 | 26 | 275 | 3.2 | 12.9 | 0.00 | 0.00 | 0.00 | 81 | 1007.4 |
| 20260506001004 | 26 | 143 | 1.6 | 9.7 | 0.00 | 0.00 | 0.00 | 81 | 1007.4 |
| 20260506000504 | 26 | 288 | 1.6 | 14.5 | 0.00 | 0.00 | 0.00 | 80 | 1007.5 |
| 20260506000014 | 26 | 244 | 4.8 | 14.5 | 0.00 | 0.00 | 0.00 | 80 | 1007.3 |
| 20260505235507 | 26 | 180 | 3.2 | 11.3 | 0.00 | 0.00 | 0.00 | 80 | 1007.4 |
| 20260505235007 | 26 | 203 | 0.0 | 9.7 | 0.00 | 0.00 | 0.00 | 80 | 1007.4 |
| 20260505234503 | 26 | 175 | 1.6 | 12.9 | 0.00 | 0.00 | 0.00 | 80 | 1007.4 |
| 20260505234007 | 26 | 210 | 3.2 | 12.9 | 0.00 | 0.00 | 0.00 | 79 | 1007.4 |
| 20260505233504 | 26 | 207 | 4.8 | 11.3 | 0.00 | 0.00 | 0.00 | 79 | 1007.4 |
| 20260505233004 | 26 | 194 | 1.6 | 11.3 | 0.00 | 0.00 | 0.00 | 79 | 1007.3 |
| 20260505232508 | 26 | 188 | 3.2 | 11.3 | 0.00 | 0.00 | 0.00 | 79 | 1007.3 |
| 20260505232006 | 26 | 183 | 3.2 | 11.3 | 0.00 | 0.00 | 0.00 | 78 | 1007.3 |
| 20260505231506 | 27 | 165 | 1.6 | 8.0 | 0.00 | 0.00 | 0.00 | 78 | 1007.4 |
| 20260505231004 | 27 | 157 | 1.6 | 9.7 | 0.00 | 0.00 | 0.00 | 78 | 1007.3 |
| 20260505230504 | 27 | 215 | 3.2 | 11.3 | 0.00 | 0.00 | 0.00 | 78 | 1007.4 |
| 20260505230015 | 27 | 72 | 3.2 | 11.3 | 0.00 | 0.00 | 0.00 | 78 | 1007.4 |
| 20260505225507 | 27 | 233 | 3.2 | 12.9 | 0.00 | 0.00 | 0.00 | 78 | 1007.4 |
| 20260505225004 | 27 | 219 | 3.2 | 12.9 | 0.00 | 0.00 | 0.00 | 78 | 1007.4 |
| 20260505224520 | 27 | 335 | 3.2 | 11.3 | 0.00 | 0.00 | 0.00 | 78 | 1007.5 |
| 20260505224007 | 27 | 231 | 3.2 | 17.7 | 0.00 | 0.00 | 0.00 | 77 | 1007.5 |
| 20260505223509 | 27 | 311 | 3.2 | 17.7 | 0.00 | 0.00 | 0.00 | 77 | 1007.5 |
| 20260505223010 | 27 | 158 | 3.2 | 11.3 | 0.00 | 0.00 | 0.00 | 77 | 1007.4 |
| 20260505222503 | 27 | 140 | 1.6 | 11.3 | 0.00 | 0.00 | 0.00 | 78 | 1007.6 |
| 20260505222007 | 27 | 231 | 3.2 | 11.3 | 0.00 | 0.00 | 0.00 | 77 | 1007.5 |
| 20260505221505 | 27 | 128 | 3.2 | 11.3 | 0.00 | 0.00 | 0.00 | 77 | 1007.6 |
| 20260505221004 | 27 | 192 | 1.6 | 14.5 | 0.00 | 0.00 | 0.00 | 76 | 1007.7 |
| 20260505220505 | 28 | 184 | 1.6 | 14.5 | 0.00 | 0.00 | 0.00 | 76 | 1007.7 |
| 20260505220022 | 28 | 148 | 0.0 | 12.9 | 0.00 | 0.00 | 0.00 | 76 | 1007.7 |
| 20260505215509 | 27 | 242 | 4.8 | 12.9 | 0.00 | 0.00 | 0.00 | 75 | 1007.7 |
| 20260505215004 | 27 | 226 | 3.2 | 12.9 | 0.00 | 0.00 | 0.00 | 76 | 1007.6 |
| 20260505214525 | 27 | 143 | 3.2 | 12.9 | 0.00 | 0.00 | 0.00 | 76 | 1007.8 |
| 20260505214005 | 27 | 97 | 1.6 | 11.3 | 0.00 | 0.00 | 0.00 | 76 | 1007.8 |
| 20260505213507 | 28 | 302 | 1.6 | 9.7 | 0.00 | 0.00 | 0.00 | 76 | 1008.0 |
| 20260505213023 | 27 | 131 | 1.6 | 9.7 | 0.00 | 0.00 | 0.00 | 76 | 1008.0 |
| 20260505212508 | 27 | 113 | 1.6 | 11.3 | 0.00 | 0.00 | 0.00 | 76 | 1008.1 |
| 20260505212014 | 27 | 188 | 1.6 | 11.3 | 0.00 | 0.00 | 0.00 | 76 | 1008.0 |
| 20260505211505 | 27 | 236 | 1.6 | 11.3 | 0.00 | 0.00 | 0.00 | 76 | 1008.2 |
| 20260505211002 | 27 | 257 | 3.2 | 11.3 | 0.00 | 0.00 | 0.00 | 74 | 1008.2 |
| 20260505210503 | 28 | 235 | 4.8 | 11.3 | 0.00 | 0.00 | 0.00 | 74 | 1008.2 |
| 20260505210008 | 28 | 174 | 3.2 | 11.3 | 0.00 | 0.00 | 0.00 | 74 | 1008.4 |
| 20260505205507 | 28 | 155 | 3.2 | 8.0 | 0.00 | 0.00 | 0.00 | 73 | 1008.5 |
| 20260505205004 | 28 | 256 | 0.0 | 9.7 | 0.00 | 0.00 | 0.00 | 74 | 1008.6 |
| 20260505204510 | 28 | 195 | 1.6 | 9.7 | 0.00 | 0.00 | 0.00 | 73 | 1008.6 |
| 20260505204007 | 28 | 151 | 1.6 | 8.0 | 0.00 | 0.00 | 0.00 | 74 | 1008.8 |
| 20260505203507 | 28 | 273 | 1.6 | 9.7 | 0.00 | 0.00 | 0.00 | 74 | 1008.8 |
| 20260505203016 | 28 | 245 | 1.6 | 9.7 | 0.00 | 0.00 | 0.00 | 74 | 1008.8 |
| 20260505202508 | 28 | 229 | 1.6 | 9.7 | 0.00 | 0.00 | 0.00 | 74 | 1008.9 |
| 20260505202008 | 28 | 249 | 3.2 | 11.3 | 0.00 | 0.00 | 0.00 | 74 | 1009.0 |